Regional Weather Roundup
Issued by NWS

Home | Current Version | Previous Version | Graphics & Text | Print | Product List | Glossary Off
Versions: 1 2 3 4 5 6 7 8 9 10 11 12 13 14 15 16 17 18 19 20 21 22 23 24 25 26 27 28 29 30 31 32 33 34 35 36 37 38 39 40 41 42 43 44 45 46 47 48 49 50

000
ASUS43 KMKX 242000
RWRWI

WISCONSIN REGIONAL WEATHER ROUNDUP
NATIONAL WEATHER SERVICE MILWAUKEE/SULLIVAN WI
300 PM CDT FRI OCT 24 2014

NOTE: "FAIR" INDICATES FEW OR NO CLOUDS BELOW 12,000 FEET WITH NO
SIGNIFICANT WEATHER AND/OR OBSTRUCTIONS TO VISIBILITY.

WIZ001-002-006>008-014>016-023>028-242100-
NORTHWEST WISCONSIN

CITY           SKY/WX    TMP DP  RH WIND       PRES   REMARKS
SUPERIOR ARPT  SUNNY     71  53  54 W8G16     29.75F
ASHLAND        SUNNY     69  50  50 S15G22    29.78F
HAYWARD        CLOUDY    63  51  65 S13       29.82F
SIREN          CLOUDY    64  52  66 S10       29.81F
CUMBERLAND     CLOUDY    59  50  72 S7        29.84F
RICE LAKE      CLOUDY    59  50  71 SE8       29.86F
CHETEK         CLOUDY    58  51  76 SE6       29.85F
LADYSMITH      PTSUNNY   60  49  67 S9        29.87F
EAU CLAIRE     NOT AVBL
MENOMONIE      CLOUDY    61  52  71 S7        29.85F
NEW RICHMOND   CLOUDY    59  54  84 S8        29.84F
OSCEOLA        CLOUDY    61  56  83 S8        29.85F
$$

WIZ003>005-009-010-017-018-242100-
NORTH CENTRAL WISCONSIN

CITY           SKY/WX    TMP DP  RH WIND       PRES   REMARKS
MANITOWISH WTR SUNNY     60  50  69 S9        29.84F
ARBOR VITAE    SUNNY     62  50  66 S9        29.86F
WOODRUFF       SUNNY     62  50  66 S9        29.86F
RHINELANDER    SUNNY     58  45  62 S8        29.88F
EAGLE RIVER    SUNNY     60  44  54 SW7       29.86F
LAND O LAKES   SUNNY     63  42  46 SW9       29.86F
PHILLIPS       MOSUNNY   62  46  55 S15G24    29.84F
TOMAHAWK       SUNNY     58  47  68 S5        29.89F
MEDFORD        PTSUNNY   55  49  80 S8        29.89F
MERRILL        SUNNY     55  49  80 S3        29.89F
$$

WIZ029-030-035-036-043>047-242100-
CENTRAL WISCONSIN

CITY           SKY/WX    TMP DP  RH WIND       PRES   REMARKS
WAUSAU         SUNNY     55  48  77 S6        29.89F
MOSINEE        NOT AVBL
MARSHFIELD     CLOUDY    57  50  77 S8        29.88F
STEVENS POINT  MOSUNNY   54  48  80 S7        29.91F
WAUPACA        MOSUNNY   57  51  79 S6        29.93F
WAUTOMA        NOT AVBL
WISC RAPIDS    PTSUNNY   60  49  66 S6        29.91F
CAMP DOUGLAS   NOT AVBL
$$

WIZ011>013-019>022-031-037>040-048>050-242100-
NORTHEAST WISCONSIN

CITY           SKY/WX    TMP DP  RH WIND       PRES   REMARKS
ANTIGO         SUNNY     53  51  90 S7        29.91F
SHAWANO        CLOUDY    53  49  86 SW6       29.94F
OCONTO         MOSUNNY   54  49  83 W7        29.92F
STURGEON BAY   MOSUNNY   57  48  72 S6        29.92F
GREEN BAY      CLOUDY    53  49  86 SW9       29.94S
MANITOWOC      NOT AVBL
APPLETON       NOT AVBL
CLINTONVILLE   CLOUDY    52  48  87 S7        29.93F
OSHKOSH        CLOUDY    54  51  90 SW8       29.94F
$$

WIZ032>034-041-042-053>061-242100-
SOUTHWEST WISCONSIN

CITY           SKY/WX    TMP DP  RH WIND       PRES   REMARKS
LA CROSSE      CLOUDY    65  53  65 S13       29.86F
SPARTA         CLOUDY    62  48  60 S8        29.89F
VIROQUA        PTSUNNY   63  51  65 S10       29.89F
BOSCOBEL       MOSUNNY   66  53  63 S10       29.90F
PRAIRIE DU CHI PTSUNNY   64  53  67 S12G17    29.89F
PLATTEVILLE    PTSUNNY   58  55  89 S12       29.95F
$$

WIZ056-057-062-063-064-067-068-242100-
SOUTH CENTRAL WISCONSIN

CITY           SKY/WX    TMP DP  RH WIND       PRES   REMARKS
REEDSBURG      PTSUNNY   59  52  78 S6        29.92F
BARABOO/DELLS  MOSUNNY   60  50  69 S8        29.93F
LONE ROCK      NOT AVBL
MINERAL POINT  MOSUNNY   61  54  77 S9        29.95F
MADISON        PTSUNNY   58  51  78 S7        29.95F
MIDDLETON      PTSUNNY   62  51  66 S7        29.96F
WATERTOWN      PTSUNNY   56  52  86 SW7       29.96F
MONROE         CLOUDY    59  54  82 S8        29.97F
JANESVILLE     PTSUNNY   57  52  82 SW8       29.97F
$$

WIZ051-052-058>065-066-070>072-242100-
SOUTHEAST WISCONSIN

CITY           SKY/WX    TMP DP  RH WIND       PRES   REMARKS
MILWAUKEE      PTSUNNY   60  51  72 SW9       29.97F
WAUKESHA       SUNNY     59  50  72 SW7       29.97F
MILWAUKEE/TIMM SUNNY     61  48  63 SW7       29.97F
RACINE         SUNNY     59  50  72 W9        29.98F
BURLINGTON     SUNNY     57  49  75 SW7       29.97F
KENOSHA        SUNNY     60  52  74 SW6       29.97F
FOND DU LAC    CLOUDY    55  50  83 SW10      29.95F
SHEBOYGAN      SUNNY     62  49  62 SW10      29.94F
WEST BEND      MOSUNNY   59  46  63 SW7       29.96S
JUNEAU         CLOUDY    54  50  87 S9        29.97F
$$

LSZ147-162-242100-
LAKE SUPERIOR

STATION/POSITION TIME  TEMP    WIND        PRES    WAVE
                       AIR SEA DIR/SP/G            HT/PER
                 (UTC) (F)     (DEG/KT/KT) (MB)    (FT/S)
W MID LAKE BUOY  1850   48 47  180/  6/  6 1009.2F
DEVILS ISLAND    1900   51     340/  3/  4 1008.8F
PORT WING        1900   55      40/  5/  5 1008.5F
SAXON HARBOR     1900   69     200/ 11/ 19 1008.8F
$$

LMZ867-665-643>646-242100-
LAKE MICHIGAN

STATION/POSITION TIME  TEMP    WIND        PRES    WAVE
                       AIR SEA DIR/SP/G            HT/PER
                 (UTC) (F)     (DEG/KT/KT) (MB)    (FT/S)
CHAMBERS ISLAND  1900   49     200/  6/ 12 1013.5F
N MID LAKE BUOY  1850   50 51  220/ 12/ 16 1014.0F   1/ 5
NORTHPORT PIER   1900   51     210/  3/  8 1013.5F
SISTER BAY       1928          200/  9/ 10   N/A
ALGOMA LAKESHORE 1856          220/ 12/ 14   N/A
KEWAUNEE LAKESHO 1900   51     170/ 10/ 12 1013.1F
SHEBOYGAN LAKESH 1900   50 51  160/ 15/ 16 1014.6F
PORT WASHINGTON  1900   53     150/  6/  8 1015.2F
ATWATER BUOY     1900   54     160/  8/ 10 1015.8F
MILWAUKEE LAKESH 1900   56     170/  6/  6   N/A
S MID LAKE BUOY  1850   52 54  230/  8/ 10 1016.3F   1
KENOSHA   LAKESH 1900   56     260/  5/  6 1015.6F
$$

TC  - TEMPERATURE IN CELSIUS
VSB - VISIBILITY IN STATUTE MILES
WCI - WIND CHILL INDEX
HX  - HEAT INDEX




USA.gov is the U.S. government's official web portal to all federal, state and local government web resources and services.